Swansboro, NC

11:55 PM EDT on September 20, 2017 (GMT -0400)
Bogue McAlf

Weather History for KNJM - January, 2014

Change the Weather History Date:

Wednesday, January 1, 2014

  Actual Average (KNKT) Record (KNKT)
Temperature  
Mean Temperature 43 °F -  
Max Temperature 54 °F 55 °F 72 °F (2007)
Min Temperature 32 °F 34 °F 21 °F (2001)
Degree Days  
Heating Degree Days 22    
Moisture  
Dew Point 35 °F    
Average Humidity 70    
Maximum Humidity 89    
Minimum Humidity 40    
Precipitation  
Precipitation 0.01 in - - ()
Sea Level Pressure  
Sea Level Pressure 30.34 in    
Wind  
Wind Speed 3 mph (NNE)    
Max Wind Speed 6 mph    
Max Gust Speed -    
Visibility 10 miles    
Events Rain    
Averages and records for this station are not official NWS values.
T = Trace of Precipitation, MM = Missing Value Source: NWS Daily Summary

Daily Weather History Graph

Daily Weather History Graph

Search for Another Location

Airport or City:

Trip Planner

Search our weather history database for the weather conditions in past years. The results will help you decide how hot, cold, wet, or windy it might be!

Date:

Astronomy

Jan. 01, 2014 Rise Set
Actual Time 7:15 AM EST 5:08 PM EST
Civil Twilight 6:47 AM EST 5:36 PM EST
Nautical Twilight 6:15 AM EST 6:07 PM EST
Astronomical Twilight 5:45 AM EST 6:38 PM EST
Moon 7:06 AM EST (1/1) 5:47 PM EST (1/1)
Length of Visible Light 10h 48m
Length of Day
9h 52m
New Moon, 0% of the Moon is Illuminated
Jan 1
New Moon
Jan 7
First Quarter
Jan 15
Full
Jan 24
Last Quarter
Jan 30
New

Hourly Weather History & Observations

Time (EST) Temp. Windchill Dew Point Humidity Pressure Visibility Wind Dir Wind Speed Gust Speed Precip Events Conditions
12:57 AM 35.1 °F 32.2 °F 32.0 °F 89% 30.37 in 10.0 mi NW 3.5 mph - N/A   Clear
1:57 AM 34.0 °F - 30.9 °F 89% 30.38 in 10.0 mi Calm Calm - N/A   Clear
2:57 AM 33.1 °F - 30.0 °F 89% 30.40 in 10.0 mi Calm Calm - N/A   Clear
3:57 AM 32.0 °F 28.7 °F 28.9 °F 88% 30.41 in 10.0 mi NW 3.5 mph - N/A   Clear
4:57 AM 37.0 °F 32.4 °F 32.0 °F 82% 30.40 in 10.0 mi North 5.8 mph - N/A   Clear
5:57 AM 37.0 °F 32.4 °F 30.0 °F 76% 30.40 in 10.0 mi North 5.8 mph - N/A   Clear
6:57 AM 37.0 °F - 28.9 °F 73% 30.41 in 10.0 mi Calm Calm - N/A   Clear
7:57 AM 39.9 °F 36.7 °F 28.9 °F 65% 30.43 in 10.0 mi NNE 4.6 mph - N/A   Clear
8:57 AM 42.1 °F 38.4 °F 30.9 °F 65% 30.43 in 10.0 mi ENE 5.8 mph - N/A   Clear
9:57 AM 45.0 °F 43.5 °F 33.1 °F 63% 30.45 in 10.0 mi NE 3.5 mph - N/A   Clear
10:57 AM 46.9 °F - 32.0 °F 56% 30.44 in 10.0 mi Variable 4.6 mph - N/A   Clear
11:57 AM 50.0 °F - 30.9 °F 48% 30.39 in 10.0 mi NNE 3.5 mph - N/A   Clear
12:57 PM 53.1 °F - 28.9 °F 40% 30.35 in 10.0 mi ENE 3.5 mph - N/A   Clear
1:57 PM 54.0 °F - 35.1 °F 49% 30.33 in 10.0 mi Variable 3.5 mph - N/A   Clear
2:57 PM 54.0 °F - 37.0 °F 53% 30.31 in 10.0 mi NNE 5.8 mph - N/A   Overcast
3:57 PM 53.1 °F - 37.9 °F 57% 30.29 in 10.0 mi North 5.8 mph - N/A   Mostly Cloudy
4:57 PM 52.0 °F - 39.0 °F 61% 30.27 in 10.0 mi NNE 4.6 mph - N/A   Mostly Cloudy
5:57 PM 50.0 °F - 39.0 °F 66% 30.28 in 10.0 mi North 5.8 mph - 0.00 in Rain Light Rain
6:57 PM 48.9 °F - 37.9 °F 66% 30.26 in 10.0 mi NE 4.6 mph - 0.00 in Rain Light Rain
7:57 PM 48.0 °F - 39.9 °F 74% 30.25 in 10.0 mi NE 3.5 mph - 0.00 in Rain Light Rain
8:57 PM 48.0 °F - 41.0 °F 77% 30.25 in 10.0 mi Calm Calm - 0.00 in   Overcast
9:57 PM 46.9 °F - 42.1 °F 83% 30.22 in 10.0 mi Calm Calm - 0.00 in   Overcast
10:57 PM 46.9 °F - 42.1 °F 83% 30.19 in 10.0 mi Calm Calm - 0.00 in Rain Light Rain
11:57 PM 46.0 °F 43.9 °F 43.0 °F 89% 30.17 in 7.0 mi NNW 4.6 mph - 0.01 in Rain Light Rain